DW9572 Weather Reports


time (UTC)temp
F
wind
direction
speed
knots
gust
knots
rain 1hr
in
rain 24hr
in
rain mn
in
humidity
%
barometer
mb
20260510093041 49 169 0.0 0.0 0.00 0.00 0.00 74 1014.2
20260510091549 51 78 0.0 0.0 0.00 0.00 0.00 68 1014.4
20260510090016 51 62 0.0 0.0 0.00 0.00 0.00 75 1014.6
20260510084513 52 62 0.0 0.0 0.00 0.00 0.00 74 1014.6
20260510083101 52 318 0.0 1.7 0.00 0.00 0.00 71 1014.7
20260510081551 53 82 0.0 0.9 0.00 0.00 0.00 64 1014.7
20260510080027 57 82 1.7 7.0 0.00 0.00 0.00 58 1014.8
20260510074529 55 49 0.0 0.0 0.00 0.00 0.00 64 1014.9
20260510073012 55 333 0.0 0.0 0.00 0.00 0.00 63 1014.9
20260510071511 57 297 0.0 0.0 0.00 0.00 0.00 54 1014.9
20260510070052 58 77 0.0 0.0 0.00 0.00 0.00 54 1014.9
20260510064606 58 337 0.0 0.0 0.00 0.00 0.00 54 1014.8
20260510063039 57 44 0.0 0.0 0.00 0.00 0.00 58 1014.8
20260510061543 60 44 0.0 0.0 0.00 0.00 0.00 50 1014.8
20260510060026 62 16 0.0 0.0 0.00 0.00 0.00 46 1014.8
20260510054512 63 337 0.0 0.0 0.00 0.00 0.00 45 1014.9
20260510053114 64 338 0.0 6.1 0.00 0.00 0.00 44 1014.9
20260510051606 67 323 1.7 7.0 0.00 0.00 0.00 40 1014.9
20260510050058 66 326 4.3 6.1 0.00 0.00 0.00 41 1014.9
20260510044540 65 339 2.6 3.5 0.00 0.00 0.00 42 1015.0
20260510043037 70 339 4.3 5.2 0.00 0.00 0.00 35 1015.0
20260510041518 70 331 5.2 6.1 0.00 0.00 0.00 35 1015.1
20260510040021 70 330 6.1 7.0 0.00 0.00 0.00 35 1015.2
20260510034506 70 331 5.2 6.1 0.00 0.00 0.00 35 1015.1
20260510033008 71 340 3.5 5.2 0.00 0.00 0.00 34 1015.0
20260510031508 71 338 2.6 3.5 0.00 0.00 0.00 35 1015.1
20260510030005 71 352 0.0 0.0 0.00 0.00 0.00 34 1015.0
20260510024504 72 53 0.0 0.0 0.00 0.00 0.00 34 1014.8
20260510023003 73 97 0.0 0.0 0.00 0.00 0.00 35 1015.0
20260510021506 73 103 0.0 1.7 0.00 0.00 0.00 36 1015.2
20260510020001 74 117 2.6 6.1 0.00 0.00 0.00 30 1015.1
20260510014542 75 117 4.3 6.1 0.00 0.00 0.00 28 1015.3
20260510013049 75 109 5.2 7.8 0.00 0.00 0.00 27 1015.4
20260510011523 75 108 7.8 9.6 0.00 0.00 0.00 25 1015.5
20260510010019 75 103 7.0 9.6 0.00 0.00 0.00 28 1015.7
20260510004602 75 115 7.8 10.4 0.00 0.00 0.00 30 1015.8
20260510003101 76 93 6.1 10.4 0.00 0.00 0.00 28 1015.9
20260510001540 76 118 7.8 11.3 0.00 0.00 0.00 28 1016.0
20260510000040 76 143 5.2 10.4 0.00 0.00 0.00 28 1016.1
20260509234534 76 148 5.2 8.7 0.00 0.00 0.00 27 1016.1
20260509233034 77 96 3.5 7.8 0.00 0.00 0.00 26 1016.2
20260509231500 77 169 1.7 6.1 0.00 0.00 0.00 27 1016.3
20260509230107 77 166 2.6 7.0 0.00 0.00 0.00 29 1016.5
20260509224543 76 101 5.2 7.8 0.00 0.00 0.00 29 1016.6
20260509223041 77 183 4.3 7.8 0.00 0.00 0.00 29 1016.9
20260509221540 76 108 5.2 7.0 0.00 0.00 0.00 29 1017.1
20260509220038 76 126 3.5 6.1 0.00 0.00 0.00 29 1017.2
20260509214534 76 110 3.5 7.0 0.00 0.00 0.00 30 1017.4
20260509213032 75 149 4.3 9.6 0.00 0.00 0.00 31 1017.7
20260509211531 75 200 5.2 8.7 0.00 0.00 0.00 32 1017.7
20260509210029 74 140 4.3 9.6 0.00 0.00 0.00 33 1017.8
20260509204522 74 157 3.5 7.0 0.00 0.00 0.00 34 1018.0
20260509203033 74 129 4.3 8.7 0.00 0.00 0.00 32 1018.1
20260509201501 73 122 4.3 8.7 0.00 0.00 0.00 33 1018.4
20260509200107 73 159 3.5 7.8 0.00 0.00 0.00 36 1018.6
20260509194541 72 141 4.3 9.6 0.00 0.00 0.00 38 1018.7
20260509193044 72 122 5.2 8.7 0.00 0.00 0.00 38 1019.0
20260509191518 71 111 6.1 8.7 0.00 0.00 0.00 39 1019.0
20260509190019 70 132 4.3 7.8 0.00 0.00 0.00 39 1019.1
20260509184602 70 203 4.3 8.7 0.00 0.00 0.00 39 1019.3
20260509183055 69 191 4.3 8.7 0.00 0.00 0.00 42 1019.6
20260509181534 69 321 2.6 7.8 0.00 0.00 0.00 42 1019.8
20260509180032 68 148 3.5 7.0 0.00 0.00 0.00 43 1019.8
20260509174516 67 100 6.1 8.7 0.00 0.00 0.00 45 1020.0
20260509173016 67 153 4.3 7.8 0.00 0.00 0.00 44 1020.1
20260509171553 67 143 4.3 8.7 0.00 0.00 0.00 44 1020.2
20260509170100 66 172 2.6 9.6 0.00 0.00 0.00 43 1020.3
20260509164531 66 173 3.5 7.0 0.00 0.00 0.00 44 1020.2
20260509163051 65 186 4.3 8.7 0.00 0.00 0.00 43 1020.2
20260509161518 65 212 5.2 12.2 0.00 0.00 0.00 46 1020.3
20260509160013 64 198 7.8 11.3 0.00 0.00 0.00 47 1020.3
20260509154510 64 195 7.8 12.2 0.00 0.00 0.00 48 1020.3
20260509153016 63 238 9.6 13.9 0.00 0.00 0.00 50 1020.3
20260509151504 61 203 8.7 13.0 0.00 0.00 0.00 53 1020.3
20260509150001 61 260 10.4 13.0 0.00 0.00 0.00 52 1020.4
20260509144602 60 250 7.8 13.0 0.00 0.00 0.00 54 1020.2
20260509143059 58 233 8.7 12.2 0.00 0.00 0.00 55 1020.1
20260509141533 57 263 5.2 8.7 0.00 0.00 0.00 57 1019.9
20260509140028 56 277 4.3 7.0 0.00 0.00 0.00 57 1019.9
20260509134506 54 261 6.1 7.8 0.00 0.00 0.00 58 1019.8
20260509133006 54 270 5.2 8.7 0.00 0.00 0.00 61 1019.6
20260509131547 54 263 6.1 7.8 0.00 0.00 0.00 61 1019.6
20260509130052 53 276 4.3 7.8 0.00 0.00 0.00 61 1019.5
20260509124540 53 278 4.3 9.6 0.00 0.00 0.00 62 1019.4
20260509123032 54 277 5.2 7.8 0.00 0.00 0.00 59 1019.6
20260509121538 54 280 2.6 5.2 0.00 0.00 0.00 59 1019.4
20260509120024 53 293 4.3 7.8 0.00 0.00 0.00 62 1019.4
20260509114545 53 276 5.2 7.8 0.00 0.00 0.00 62 1019.3
20260509113023 53 276 3.5 7.0 0.00 0.00 0.00 62 1019.3
20260509111521 52 229 3.5 7.0 0.00 0.00 0.00 58 1019.2
20260509110021 53 151 0.0 8.7 0.00 0.00 0.00 57 1019.1
20260509104503 52 16 0.9 6.1 0.00 0.00 0.00 60 1019.0
20260509103059 58 335 5.2 8.7 0.00 0.00 0.00 48 1018.7
20260509101541 56 49 1.7 7.8 0.00 0.00 0.00 52 1018.9
20260509100040 56 308 5.2 6.1 0.00 0.00 0.00 53 1018.7
20260509094525 56 345 2.6 7.0 0.00 0.00 0.00 50 1018.6